Location: Unspecified
(0.0000°N, 0.0000°E)
Time: 16:34:19
(UTC+00:00)

Envisat - Pass Details

Date: 12 December 2018
Orbit: 764 x 766 km, 98.2° (Epoch: 13 December)

Event Time Altitude Azimuth Distance (km) Brightness Sun altitude
Rises 18:36:06 0° 148° (SSE) 3,230 6.1 -9.7°
Reaches altitude 10° 18:38:43 10° 136° (SE) 2,301 5.3 -10.3°
Maximum altitude 18:43:00 28° 78° (ENE) 1,406 3.8 -11.3°
Drops below altitude 10° 18:47:16 10° 20° (NNE) 2,291 5.1 -12.3°
Sets 18:49:51 0° 9° (N) 3,214 5.9 -12.9°
